Date String (YYYY-MM-DD hh:mm:ss) UTC,Instrument flags,Ambient pressure (hPa),Sample flow (lpm),Bypass flow (lpm),Sample temperature (°C),Ambient temperature (°C),ASC tube jacket temperature (°C),LED temperature (°C),Box temperature (°C),Sample RH (%),Span deviation,Mass concentration (μg/m³),Mass concentration (μg/m³),Mass concentration (μg/m³)
DateTimeUTC,F1_M11,P_M11,Q1_M11,Q2_M11,T1_M11,T2_M11,T3_M11,T4_M11,T5_M11,U1_M11,ZSPAN_M11,X0_M11,X2_M11,X1_M11
2023-04-08 13:00:00,,0829.4,4.98,0.00,22.7,21.1,00.0,31.0,24.2,11.0,0000.0,0011.21,0003.93,0002.40
2023-04-08 13:01:00,,0829.4,5.00,0.00,22.7,21.1,00.0,31.0,24.2,10.9,0000.0,0011.12,0003.87,0002.38
2023-04-08 13:02:00,,0829.3,5.00,0.00,22.7,21.1,00.0,31.0,24.2,10.9,0000.0,0011.15,0003.92,0002.38
2023-04-08 13:03:00,,0829.4,5.00,0.00,22.7,21.1,00.0,31.0,24.2,10.9,0000.0,0010.71,0003.88,0002.37
2023-04-08 13:04:00,,0829.3,5.00,0.00,22.7,21.1,00.0,31.0,24.2,10.9,0000.0,0010.52,0003.86,0002.35
2023-04-08 13:05:00,,0829.4,5.00,0.00,22.7,21.1,00.0,31.0,24.2,10.9,0000.0,0010.50,0003.86,0002.35
2023-04-08 13:06:00,,0829.4,5.00,0.00,22.7,21.0,00.0,31.0,24.2,10.8,0000.0,0009.66,0003.85,0002.35
2023-04-08 13:07:00,,0829.3,4.99,0.00,22.7,21.0,00.0,31.0,24.2,10.8,0000.0,0010.15,0003.78,0002.35
2023-04-08 13:08:00,,0829.4,5.00,0.00,22.7,21.0,00.0,31.0,24.1,10.9,0000.0,0010.49,0003.76,0002.38
2023-04-08 13:09:00,,0829.3,5.00,0.00,22.7,21.0,00.0,31.0,24.2,10.9,0000.0,0010.29,0003.76,0002.38
2023-04-08 13:10:00,,0829.4,5.00,0.00,22.6,21.0,00.0,31.0,24.1,10.9,0000.0,0010.26,0003.71,0002.37
2023-04-08 13:11:00,,0829.3,5.01,0.00,22.6,21.0,00.0,31.0,24.2,10.9,0000.0,0010.51,0003.68,0002.38
2023-04-08 13:12:00,,0829.3,5.00,0.00,22.6,21.0,00.0,31.0,24.2,10.8,0000.0,0010.28,0003.65,0002.38
2023-04-08 13:13:00,,0829.3,5.01,0.00,22.6,21.0,00.0,30.9,24.1,10.8,0000.0,0010.04,0003.61,0002.39
2023-04-08 13:14:00,,0829.3,5.00,0.00,22.6,21.0,00.0,30.9,24.2,10.8,0000.0,0010.64,0003.58,0002.40
2023-04-08 13:15:00,,0829.3,4.98,0.00,22.6,21.0,00.0,30.9,24.2,10.8,0000.0,0010.73,0003.58,0002.42
2023-04-08 13:16:00,,0829.4,5.00,0.00,22.6,21.0,00.0,30.9,24.2,10.8,0000.0,0011.36,0003.57,0002.42
2023-04-08 13:17:00,,0829.4,5.01,0.00,22.6,21.0,00.0,30.9,24.2,10.8,0000.0,0011.66,0003.54,0002.40
2023-04-08 13:18:00,,0829.4,5.01,0.00,22.6,21.0,00.0,30.9,24.2,10.9,0000.0,0010.90,0003.57,0002.39
2023-04-08 13:19:00,,0829.3,5.01,0.00,22.6,21.0,00.0,30.9,24.1,10.9,0000.0,0010.35,0003.59,0002.37
2023-04-08 13:20:00,,0829.4,4.99,0.00,22.6,21.0,00.0,30.9,24.1,10.9,0000.0,0010.60,0003.59,0002.37
2023-04-08 13:21:00,,0829.4,5.00,0.00,22.6,20.9,00.0,30.9,24.1,10.9,0000.0,0011.99,0003.65,0002.36
2023-04-08 13:22:00,,0829.4,5.01,0.00,22.6,20.9,00.0,30.9,24.1,10.9,0000.0,0012.48,0003.67,0002.35
2023-04-08 13:23:00,,0829.5,5.00,0.00,22.6,20.9,00.0,30.9,24.1,10.9,0000.0,0013.18,0003.70,0002.36
2023-04-08 13:24:00,,0829.5,5.01,0.00,22.6,20.9,00.0,30.9,24.1,10.9,0000.0,0013.52,0003.76,0002.34
2023-04-08 13:25:00,,0829.5,5.01,0.00,22.6,20.9,00.0,30.9,24.1,10.9,0000.0,0013.01,0003.79,0002.33
2023-04-08 13:26:00,,0829.5,5.00,0.00,22.6,20.9,00.0,30.9,24.1,10.9,0000.0,0013.26,0003.80,0002.32
2023-04-08 13:27:00,,0829.6,4.99,0.00,22.6,20.9,00.0,30.9,24.1,10.9,0000.0,0013.09,0003.82,0002.32
2023-04-08 13:28:00,,0829.6,5.00,0.00,22.6,20.9,00.0,30.9,24.1,10.8,0000.0,0012.56,0003.83,0002.33
2023-04-08 13:29:00,,0829.6,5.01,0.00,22.6,20.9,00.0,30.9,24.1,10.9,0000.0,0012.62,0003.82,0002.33
2023-04-08 13:30:00,,0829.6,5.01,0.00,22.6,20.9,00.0,30.9,24.1,10.9,0000.0,0012.58,0003.80,0002.30
2023-04-08 13:31:00,,0829.6,5.00,0.00,22.6,20.9,00.0,30.9,24.1,10.9,0000.0,0012.85,0003.84,0002.30
2023-04-08 13:32:00,,0829.6,5.00,0.00,22.6,20.9,00.0,30.9,24.1,11.0,0000.0,0011.91,0003.87,0002.32
2023-04-08 13:33:00,,0829.7,4.99,0.00,22.6,20.9,00.0,30.9,24.1,11.0,0000.0,0011.20,0003.83,0002.35
2023-04-08 13:34:00,,0829.6,4.99,0.00,22.6,21.0,00.0,30.9,24.1,11.0,0000.0,0010.97,0003.89,0002.38
2023-04-08 13:35:00,,0829.7,5.01,0.00,22.6,21.0,00.0,30.9,24.1,11.0,0000.0,0010.93,0003.88,0002.39
2023-04-08 13:36:00,,0829.6,5.01,0.00,22.6,21.0,00.0,30.9,24.1,11.0,0000.0,0011.15,0003.89,0002.41
2023-04-08 13:37:00,,0829.7,4.99,0.00,22.6,21.0,00.0,30.9,24.1,11.0,0000.0,0010.92,0003.90,0002.43
2023-04-08 13:38:00,,0829.6,4.99,0.00,22.6,21.0,00.0,30.9,24.1,10.9,0000.0,0010.48,0003.86,0002.45
2023-04-08 13:39:00,,0829.7,5.00,0.00,22.6,21.0,00.0,30.9,24.1,10.9,0000.0,0010.53,0003.87,0002.47
2023-04-08 13:40:00,,0829.7,5.00,0.00,22.6,21.0,00.0,30.9,24.1,10.9,0000.0,0011.25,0003.89,0002.47
2023-04-08 13:41:00,,0829.7,5.01,0.00,22.6,21.0,00.0,30.9,24.1,10.9,0000.0,0011.72,0003.90,0002.49
2023-04-08 13:42:00,,0829.7,5.01,0.00,22.6,21.0,00.0,30.9,24.1,10.9,0000.0,0011.65,0003.88,0002.51
2023-04-08 13:43:00,,0829.7,4.99,0.00,22.6,21.0,00.0,30.9,24.2,11.1,0000.0,0011.51,0003.86,0002.49
2023-04-08 13:44:00,,0829.7,5.00,0.00,22.6,21.0,00.0,30.9,24.2,11.0,0000.0,0011.31,0003.87,0002.46
2023-04-08 13:45:00,,0829.7,5.02,0.00,22.6,21.0,00.0,30.9,24.2,10.8,0000.0,0011.04,0003.82,0002.43
2023-04-08 13:46:00,,0829.7,5.00,0.00,22.6,21.0,00.0,30.9,24.1,10.7,0000.0,0010.77,0003.77,0002.42
2023-04-08 13:47:00,,0829.8,5.00,0.00,22.6,21.0,00.0,30.9,24.1,10.6,0000.0,0010.47,0003.73,0002.41
2023-04-08 13:48:00,,0829.7,5.00,0.00,22.6,21.0,00.0,30.9,24.1,10.7,0000.0,0010.34,0003.74,0002.39
2023-04-08 13:49:00,,0829.8,5.00,0.00,22.6,21.0,00.0,30.9,24.1,10.6,0000.0,0010.86,0003.77,0002.36
2023-04-08 13:50:00,,0829.8,5.01,0.00,22.6,21.0,00.0,30.9,24.2,10.6,0000.0,0011.06,0003.76,0002.35
2023-04-08 13:51:00,,0829.8,4.99,0.00,22.6,21.0,00.0,30.9,24.1,11.0,0000.0,0010.27,0003.75,0002.34
2023-04-08 13:52:00,,0829.8,5.00,0.00,22.6,21.0,00.0,30.9,24.1,10.8,0000.0,0009.79,0003.75,0002.32
2023-04-08 13:53:00,,0829.8,5.01,0.00,22.6,21.0,00.0,30.9,24.2,10.7,0000.0,0009.66,0003.71,0002.30
2023-04-08 13:54:00,,0829.8,5.01,0.00,22.6,21.0,00.0,30.9,24.2,10.7,0000.0,0009.51,0003.72,0002.30
2023-04-08 13:55:00,,0829.8,5.01,0.00,22.6,21.0,00.0,30.9,24.1,10.7,0000.0,0009.62,0003.70,0002.29
2023-04-08 13:56:00,,0829.8,5.00,0.00,22.6,21.0,00.0,30.9,24.2,10.7,0000.0,0009.37,0003.65,0002.27
2023-04-08 13:57:00,,0829.8,5.00,0.00,22.6,21.0,00.0,30.9,24.1,10.7,0000.0,0009.35,0003.69,0002.26
2023-04-08 13:58:00,,0829.8,4.99,0.00,22.6,21.0,00.0,30.9,24.1,10.7,0000.0,0009.46,0003.67,0002.24
2023-04-08 13:59:00,,0829.7,5.00,0.00,22.6,20.9,00.0,30.9,24.1,10.7,0000.0,0010.00,0003.63,0002.22
